Location: Peterborough
(44.3091°N, 78.3197°W)
Time: 17:51:58
(UTC-04:00)

A-11 Canister half - Pass Details

Date: 27 March 2023
Orbit: 1526 x 1682 km, 47.3° (Epoch: 05 June)

Event Time Altitude Azimuth Distance (km) Brightness Sun altitude
Rises 00:26:11 0° 293° (WNW) 4,818 12.0 -41.7°
Reaches altitude 10° 00:29:52 10° 283° (WNW) 3,805 11.3 -41.9°
Enters shadow 00:33:47 22° 263° (W) 2,949 10.4 -42.1°
